BAW9EW CYUL-EGLL

Flight info

Callsign BAW9EW
Flight time N/A
Altitude 37000
Route DCT ANTEG DCT OBRON DCT MOBUB DCT EBMOS DCT IMORI DCT KITOP DCT CEFOU N645B RIKAL/M083F380 DCT 53N050W 54N040W 55N030W 55N020W DCT DOGAL DCT BEXET/N0477F390 DCT INKUR DCT LIFFY UL975 MALUD Q38 NUGRA NUGRA2H
Aircraft B77W/H-SDE1E3FGHIJ3J4J5J6M1M2P2RWXYZ/LB1D1

Departure

Time 2026-05-07 12:32
Airport Montreal / Pierre Elliott Trudeau International Airport (CYUL)

Arrival

Time N/A
Airport London Heathrow Airport (EGLL)
Time Latitude Longitude Altitude Speed Heading
2026-05-07 11:08 45.45985 -73.75635 109 ft 0 kts 178°
2026-05-07 12:16 45.45994 -73.75636 110 ft 3 kts 177°
2026-05-07 12:16 45.46017 -73.75637 112 ft 3 kts 177°
2026-05-07 12:17 45.46035 -73.75639 107 ft 3 kts 161°
2026-05-07 12:17 45.46053 -73.75654 108 ft 3 kts 119°
2026-05-07 12:17 45.46059 -73.75683 105 ft 3 kts 90°
2026-05-07 12:17 45.46058 -73.75714 105 ft 3 kts 88°
2026-05-07 12:18 45.46057 -73.75746 105 ft 3 kts 88°
2026-05-07 12:18 45.46056 -73.75778 106 ft 3 kts 88°
2026-05-07 12:18 45.46056 -73.75801 106 ft 0 kts 87°
2026-05-07 12:21 45.46056 -73.75793 106 ft 5 kts 87°
2026-05-07 12:21 45.46059 -73.75696 105 ft 11 kts 88°
2026-05-07 12:22 45.46062 -73.75590 109 ft 11 kts 88°
2026-05-07 12:22 45.46065 -73.75484 109 ft 11 kts 88°
2026-05-07 12:22 45.46084 -73.75385 108 ft 11 kts 39°
2026-05-07 12:22 45.46140 -73.75307 109 ft 12 kts 77°
2026-05-07 12:23 45.46147 -73.75187 106 ft 12 kts 87°
2026-05-07 12:23 45.46150 -73.75065 108 ft 12 kts 88°
2026-05-07 12:23 45.46153 -73.74945 109 ft 13 kts 87°
2026-05-07 12:23 45.46159 -73.74781 109 ft 21 kts 87°
2026-05-07 12:24 45.46159 -73.74621 108 ft 14 kts 102°
2026-05-07 12:24 45.46129 -73.74490 108 ft 14 kts 88°
2026-05-07 12:24 45.46134 -73.74344 108 ft 15 kts 87°
2026-05-07 12:24 45.46137 -73.74200 108 ft 15 kts 88°
2026-05-07 12:25 45.46141 -73.74086 109 ft 10 kts 84°
2026-05-07 12:25 45.46184 -73.74002 110 ft 11 kts 44°
2026-05-07 12:25 45.46251 -73.73913 110 ft 16 kts 43°
2026-05-07 12:25 45.46343 -73.73791 109 ft 19 kts 43°
2026-05-07 12:26 45.46438 -73.73666 110 ft 19 kts 43°
2026-05-07 12:26 45.46534 -73.73540 112 ft 19 kts 42°
2026-05-07 12:26 45.46629 -73.73416 112 ft 19 kts 43°
2026-05-07 12:26 45.46724 -73.73292 115 ft 19 kts 42°
2026-05-07 12:27 45.46821 -73.73165 116 ft 19 kts 43°
2026-05-07 12:27 45.46916 -73.73039 116 ft 19 kts 43°
2026-05-07 12:27 45.47010 -73.72914 119 ft 19 kts 43°
2026-05-07 12:27 45.47105 -73.72789 118 ft 19 kts 43°
2026-05-07 12:28 45.47202 -73.72663 120 ft 19 kts 42°
2026-05-07 12:28 45.47297 -73.72540 119 ft 19 kts 42°
2026-05-07 12:28 45.47392 -73.72416 119 ft 19 kts 43°
2026-05-07 12:28 45.47487 -73.72290 120 ft 19 kts 43°
2026-05-07 12:29 45.47583 -73.72164 121 ft 19 kts 43°
2026-05-07 12:29 45.47678 -73.72040 122 ft 19 kts 42°
2026-05-07 12:29 45.47772 -73.71917 122 ft 14 kts 42°
2026-05-07 12:29 45.47826 -73.71847 122 ft 10 kts 42°
2026-05-07 12:30 45.47868 -73.71774 123 ft 10 kts 70°
2026-05-07 12:30 45.47844 -73.71685 125 ft 10 kts 126°
2026-05-07 12:30 45.47799 -73.71610 124 ft 10 kts 133°
2026-05-07 12:30 45.47742 -73.71573 125 ft 9 kts 193°
2026-05-07 12:31 45.47700 -73.71611 126 ft 7 kts 222°
2026-05-07 12:31 45.47693 -73.71619 124 ft 4 kts 223°
2026-05-07 12:31 45.47499 -73.71874 123 ft 79 kts 222°
2026-05-07 12:31 45.46914 -73.72641 120 ft 146 kts 224°
2026-05-07 12:32 45.46097 -73.73685 547 ft 159 kts 225°
2026-05-07 12:32 45.45284 -73.74745 1386 ft 156 kts 228°
2026-05-07 12:32 45.44507 -73.75895 1917 ft 172 kts 233°
2026-05-07 12:32 45.43663 -73.77277 2189 ft 200 kts 233°
2026-05-07 12:33 45.41944 -73.80049 2903 ft 239 kts 231°
2026-05-07 12:33 45.40778 -73.82685 3943 ft 238 kts 261°
2026-05-07 12:33 45.40857 -73.84994 4954 ft 237 kts 288°
2026-05-07 12:34 45.41392 -73.86392 5552 ft 242 kts 307°
2026-05-07 12:34 45.42747 -73.87828 6362 ft 255 kts 335°
2026-05-07 12:34 45.44539 -73.88201 7105 ft 270 kts
2026-05-07 12:34 45.46344 -73.87336 7896 ft 283 kts 27°
2026-05-07 12:35 45.47968 -73.85694 8728 ft 289 kts 35°
2026-05-07 12:35 45.49548 -73.83874 9510 ft 295 kts 37°
2026-05-07 12:35 45.51150 -73.81974 10245 ft 301 kts 37°
2026-05-07 12:35 45.52789 -73.80025 10619 ft 323 kts 37°
2026-05-07 12:36 45.54596 -73.77884 10852 ft 350 kts 37°
2026-05-07 12:36 45.56546 -73.75584 11113 ft 374 kts 37°
2026-05-07 12:36 45.58587 -73.73181 11806 ft 386 kts 37°
2026-05-07 12:36 45.60689 -73.70711 12648 ft 396 kts 37°
2026-05-07 12:37 45.62840 -73.68186 13554 ft 404 kts 37°
2026-05-07 12:37 45.65033 -73.65615 14392 ft 411 kts 37°
2026-05-07 12:37 45.67236 -73.63032 15209 ft 419 kts 37°
2026-05-07 12:37 45.69519 -73.60354 16026 ft 428 kts 37°
2026-05-07 12:38 45.71857 -73.57609 16838 ft 436 kts 37°
2026-05-07 12:38 45.74199 -73.54855 17637 ft 444 kts 38°
2026-05-07 12:38 45.76624 -73.52002 18402 ft 452 kts 38°
2026-05-07 12:38 45.79048 -73.49144 19123 ft 459 kts 38°
2026-05-07 12:39 45.81520 -73.46227 19877 ft 464 kts 37°
2026-05-07 12:39 45.84031 -73.43262 20617 ft 471 kts 37°
2026-05-07 12:39 45.86567 -73.40224 21336 ft 478 kts 39°
2026-05-07 12:39 45.88962 -73.36859 22031 ft 486 kts 45°
2026-05-07 12:40 45.91266 -73.33245 22712 ft 493 kts 45°
2026-05-07 12:40 45.93598 -73.29607 23363 ft 499 kts 45°
2026-05-07 12:40 45.95986 -73.25943 23977 ft 504 kts 45°
2026-05-07 12:40 45.98394 -73.22250 24656 ft 506 kts 45°
2026-05-07 12:41 46.00789 -73.18558 25258 ft 511 kts 45°
2026-05-07 12:41 46.03233 -73.14778 25792 ft 516 kts 45°
2026-05-07 12:41 46.05697 -73.10960 26250 ft 522 kts 45°
2026-05-07 12:41 46.08182 -73.07105 26729 ft 528 kts 45°
2026-05-07 12:42 46.10670 -73.03239 27219 ft 533 kts 45°
2026-05-07 12:42 46.13201 -72.99304 27818 ft 536 kts 45°
2026-05-07 12:42 46.15729 -72.95337 28424 ft 539 kts 47°
2026-05-07 12:42 46.18116 -72.91108 28888 ft 544 kts 53°
2026-05-07 12:43 46.20213 -72.86530 29297 ft 549 kts 59°
2026-05-07 12:43 46.22173 -72.81754 29726 ft 553 kts 59°
2026-05-07 12:43 46.24088 -72.77015 30185 ft 554 kts 59°
2026-05-07 12:43 46.26034 -72.72206 30722 ft 552 kts 59°
2026-05-07 12:44 46.27986 -72.67420 31293 ft 550 kts 59°
2026-05-07 12:44 46.29939 -72.62671 31909 ft 547 kts 59°
2026-05-07 12:44 46.31869 -72.57997 32410 ft 546 kts 59°
2026-05-07 12:44 46.33830 -72.53254 32834 ft 547 kts 59°
2026-05-07 12:45 46.35790 -72.48509 33169 ft 549 kts 59°
2026-05-07 12:45 46.37731 -72.43800 33483 ft 552 kts 59°
2026-05-07 12:45 46.39701 -72.39006 33874 ft 552 kts 59°
2026-05-07 12:45 46.41648 -72.34260 34283 ft 551 kts 59°
2026-05-07 12:46 46.43612 -72.29459 34733 ft 549 kts 59°
2026-05-07 12:46 46.45556 -72.24697 35155 ft 547 kts 59°
2026-05-07 12:46 46.47473 -72.19994 35504 ft 547 kts 59°
2026-05-07 12:46 46.49416 -72.15220 35816 ft 547 kts 59°
2026-05-07 12:47 46.51341 -72.10483 36143 ft 547 kts 59°
2026-05-07 12:47 46.53282 -72.05702 36481 ft 547 kts 59°
2026-05-07 12:47 46.55189 -72.00993 36742 ft 548 kts 59°
2026-05-07 12:47 46.57129 -71.96176 36770 ft 553 kts 59°
2026-05-07 12:48 46.60971 -71.86568 36766 ft 547 kts 59°
2026-05-07 12:48 46.64764 -71.77046 36772 ft 543 kts 59°
2026-05-07 12:49 46.68565 -71.67491 36783 ft 542 kts 59°
2026-05-07 12:49 46.72846 -71.58496 36791 ft 541 kts 47°
2026-05-07 12:50 46.77885 -71.50402 36777 ft 541 kts 49°
2026-05-07 12:50 46.82132 -71.41318 36780 ft 542 kts 60°
2026-05-07 12:51 46.85833 -71.31748 36746 ft 542 kts 61°
2026-05-07 12:51 46.89534 -71.22163 36774 ft 543 kts 60°
2026-05-07 12:52 46.93280 -71.12596 36770 ft 544 kts 60°
2026-05-07 12:52 46.97068 -71.02967 36767 ft 544 kts 60°
2026-05-07 12:53 47.00831 -70.93366 36759 ft 544 kts 60°
2026-05-07 12:53 47.04574 -70.83772 36779 ft 544 kts 60°
2026-05-07 12:54 47.08308 -70.74162 36711 ft 543 kts 61°
2026-05-07 12:54 47.12033 -70.64537 36749 ft 541 kts 61°
2026-05-07 12:55 47.15724 -70.54967 36746 ft 540 kts 61°
2026-05-07 12:55 47.19420 -70.45353 36744 ft 539 kts 61°
2026-05-07 12:56 47.23106 -70.35729 36745 ft 539 kts 61°
2026-05-07 12:56 47.26769 -70.26131 36739 ft 540 kts 61°
2026-05-07 12:57 47.30443 -70.16470 36740 ft 540 kts 61°
2026-05-07 12:57 47.34093 -70.06838 36735 ft 539 kts 62°
2026-05-07 12:58 47.37748 -69.97156 36734 ft 539 kts 62°
2026-05-07 12:58 47.41390 -69.87473 36734 ft 539 kts 62°
2026-05-07 12:59 47.45032 -69.77757 36734 ft 539 kts 62°
2026-05-07 12:59 47.48639 -69.68099 36751 ft 539 kts 62°
2026-05-07 13:00 47.52252 -69.58391 36743 ft 538 kts 62°
2026-05-07 13:00 47.55843 -69.48705 36705 ft 537 kts 63°
2026-05-07 13:01 47.59428 -69.38998 36736 ft 536 kts 63°
2026-05-07 13:01 47.62991 -69.29317 36748 ft 536 kts 63°
2026-05-07 13:02 47.66547 -69.19619 36738 ft 536 kts 63°
2026-05-07 13:02 47.70089 -69.09925 36748 ft 535 kts 63°
2026-05-07 13:03 47.73641 -69.00170 36744 ft 535 kts 63°
2026-05-07 13:03 47.77209 -68.90469 36712 ft 535 kts 63°
2026-05-07 13:04 47.80794 -68.80810 36740 ft 534 kts 63°
2026-05-07 13:04 47.84365 -68.71151 36739 ft 534 kts 63°
2026-05-07 13:05 47.87925 -68.61458 36743 ft 535 kts 63°
2026-05-07 13:05 47.91496 -68.51689 36741 ft 535 kts 63°
2026-05-07 13:06 47.95030 -68.41983 36745 ft 535 kts 63°
2026-05-07 13:06 47.98584 -68.32185 36740 ft 535 kts 63°
2026-05-07 13:07 48.02111 -68.22432 36693 ft 535 kts 63°
2026-05-07 13:07 48.05633 -68.12653 36720 ft 535 kts 64°
2026-05-07 13:08 48.09134 -68.02897 36741 ft 535 kts 64°
2026-05-07 13:08 48.12634 -67.93106 36726 ft 535 kts 64°
2026-05-07 13:09 48.16140 -67.83265 36721 ft 535 kts 64°
2026-05-07 13:09 48.19632 -67.73422 36716 ft 535 kts 64°
2026-05-07 13:10 48.23116 -67.63569 36720 ft 535 kts 64°
2026-05-07 13:10 48.26590 -67.53703 36711 ft 534 kts 64°
2026-05-07 13:11 48.30047 -67.43852 36705 ft 533 kts 64°
2026-05-07 13:11 48.33490 -67.34001 36706 ft 533 kts 64°
2026-05-07 13:12 48.36925 -67.24135 36703 ft 532 kts 64°
2026-05-07 13:12 48.40358 -67.14236 36696 ft 531 kts 64°
2026-05-07 13:13 48.43755 -67.04404 36699 ft 531 kts 65°
2026-05-07 13:13 48.47145 -66.94555 36636 ft 530 kts 65°
2026-05-07 13:14 48.50533 -66.84677 36698 ft 530 kts 65°
2026-05-07 13:14 48.53899 -66.74821 36703 ft 530 kts 65°
2026-05-07 13:15 48.57267 -66.64926 36683 ft 530 kts 65°
2026-05-07 13:15 48.60617 -66.55042 36682 ft 530 kts 65°
2026-05-07 13:16 48.63966 -66.45122 36686 ft 530 kts 65°
2026-05-07 13:16 48.67310 -66.35182 36700 ft 532 kts 65°
2026-05-07 13:17 48.68987 -66.30180 36938 ft 533 kts 65°
2026-05-07 13:17 48.70667 -66.25160 37196 ft 533 kts 65°
2026-05-07 13:17 48.72345 -66.20137 37525 ft 533 kts 65°